This demonstration page uses our WeatherBlox Daily Observations layout. Learn more.

Left ArrowRight Arrow

40.92945, -100.16068

Hourly Observations for July 24, 2020

Temp ( °F °C ) Dew Point ( °F °C ) Humidity (%) Winds ( mph kmh ) Pressure ( in mb ) Visibility ( mi km ) Precip ( " mm )
12:15 am 00:15 Clear 78 25.7 69 20.6 74 74 SSE 13 20 29.87 1012 10 16.0934 0 0
12:35 am 00:35 Clear 78 25.5 69 20.6 74 74 SSE 16 26 29.88 1012 10 16.0934 0 0
12:55 am 00:55 Clear 78 25.4 69 20.7 75 75 SSE 14 22 29.89 1012 10 16.0934 0 0
1:15 am 01:15 Clear 78 25.3 69 20.8 76 76 SSE 18 30 29.89 1012 10 16.0934 0 0
1:35 am 01:35 Clear 77 25.2 70 20.9 77 77 SSE 15 24 29.88 1012 10 16.0934 0 0
1:55 am 01:55 Clear 77 25 70 21 79 79 SSE 15 24 29.88 1012 10 16.0934 0 0
2:15 am 02:15 Partly Cloudy 76 24.7 70 21.2 81 81 SSE 14 22 29.88 1012 10 16.0934 0 0
2:35 am 02:35 Mostly Cloudy 76 24.7 70 21.3 81 81 SSE 14 22 29.88 1012 10 16.0934 0 0
2:55 am 02:55 Mostly Cloudy 76 24.6 70 21.3 82 82 SSE 15 24 29.88 1012 10 16.0934 0 0
3:15 am 03:15 Mostly Cloudy 76 24.5 70 21.3 82 82 SE 10 17 29.87 1012 10 16.0934 0 0
3:35 am 03:35 Cloudy 76 24.5 70 21.3 82 82 SSE 9 15 29.88 1012 10 16.0934 0 0
3:55 am 03:55 Cloudy 76 24.2 70 21.3 84 84 SSE 13 20 29.88 1012 10 16.0934 0 0
4:15 am 04:15 Cloudy 75 24.1 70 21.3 84 84 SSE 13 20 29.88 1012 10 16.0934 0 0
4:35 am 04:35 Partly Cloudy 75 24 71 21.5 86 86 SSE 14 22 29.88 1012 10 16.0934 0 0
4:55 am 04:55 Partly Cloudy 75 24 71 21.5 86 86 SSE 16 26 29.88 1012 10 16.0934 0 0
5:15 am 05:15 Partly Cloudy with Light Rain 75 23.8 71 21.6 88 88 SSE 9 15 29.88 1012 10 16.0934 0 0
5:35 am 05:35 Mostly Cloudy with Light Rain 74 23.5 71 21.8 90 90 SSE 10 17 29.87 1012 10 16.0934 0 0
5:55 am 05:55 Partly Cloudy with Light Rain 74 23.2 72 22 93 93 SSE 13 20 29.87 1012 10 16.0934 0 0
6:15 am 06:15 Partly Cloudy with Drizzle 73 23 72 22 94 94 SSE 14 22 29.88 1012 10 16.0934 0 0
6:35 am 06:35 Mostly Cloudy 74 23.1 72 22 94 94 SSE 13 20 29.88 1012 10 16.0934 0 0
6:55 am 06:55 Cloudy 74 23.2 72 22 93 93 SSE 12 19 29.88 1012 10 16.0934 0 0
7:15 am 07:15 Mostly Cloudy 74 23.3 72 22 92 92 SSE 14 22 29.88 1012 10 16.0934 0 0
7:35 am 07:35 Mostly Cloudy 74 23.4 72 22 92 92 SSE 13 20 29.88 1012 10 16.0934 0 0
7:55 am 07:55 Mostly Cloudy 74 23.5 72 22 91 91 SSE 13 20 29.88 1012 10 16.0934 0 0
8:15 am 08:15 Partly Cloudy 75 23.7 72 22 90 90 SSE 12 19 29.88 1012 10 16.0934 0 0
8:35 am 08:35 Partly Cloudy 75 24 72 22 89 89 SSE 14 22 29.88 1012 10 16.0934 0 0
8:55 am 08:55 Partly Cloudy 76 24.6 72 22.2 87 87 S 18 30 29.87 1012 10 16.0934 0 0
9:15 am 09:15 Sunny 77 25.1 72 22.2 84 84 S 17 28 29.87 1011 10 16.0934 0 0
9:35 am 09:35 Partly Cloudy 78 25.5 72 22 81 81 S 20 31 29.87 1011 10 16.0934 0 0
9:55 am 09:55 Partly Cloudy 79 26 72 22.1 79 79 S 18 30 29.86 1011 10 16.0934 0 0
10:15 am 10:15 Partly Cloudy 80 26.6 72 22.1 76 76 S 18 30 29.86 1011 10 16.0934 0 0
10:35 am 10:35 Sunny 81 27.1 72 22.1 74 74 S 17 28 29.84 1011 10 16.0934 0 0
10:55 am 10:55 Partly Cloudy 84 28.9 73 22.5 68 68 S 21 33 29.83 1010 10 16.0934 0 0
11:15 am 11:15 Sunny 85 29.5 73 22.7 67 67 S 22 35 29.82 1010 10 16.0934 0 0
11:35 am 11:35 Sunny 86 30 73 22.5 64 64 S 16 26 29.82 1010 10 16.0934 0 0
11:55 am 11:55 Sunny 88 30.9 73 22.7 62 62 S 21 33 29.8 1009 10 16.0934 0 0
12:15 pm 12:15 Partly Cloudy 88 31.2 73 22.6 60 60 SSE 23 37 29.8 1009 10 16.0934 0 0
12:35 pm 12:35 Partly Cloudy 88 31.1 73 22.7 61 61 SSE 18 30 29.8 1009 10 16.0934 0 0
12:55 pm 12:55 Sunny 89 31.6 73 22.6 59 59 SSE 22 35 29.8 1009 10 16.0934 0 0
1:15 pm 13:15 Sunny 91 33 73 23 56 56 S 20 31 29.79 1009 10 16.0934 0 0
1:35 pm 13:35 Partly Cloudy 91 32.6 73 22.7 56 56 SSE 18 30 29.78 1008 10 16.0934 0 0
1:55 pm 13:55 Partly Cloudy 91 32.8 73 22.6 55 55 SSE 22 35 29.77 1008 10 16.0934 0 0
2:15 pm 14:15 Mostly Cloudy 91 32.7 74 23.1 57 57 SSE 22 35 29.77 1008 10 16.0934 0 0
2:35 pm 14:35 Mostly Cloudy 91 32.7 73 23 57 57 SSE 21 33 29.77 1008 10 16.0934 0 0
2:55 pm 14:55 Mostly Cloudy 92 33.4 72 22.4 52 52 SSE 24 39 29.75 1008 10 16.0934 0 0
3:15 pm 15:15 Partly Cloudy 92 33.5 73 22.5 53 53 SSE 25 41 29.74 1007 10 16.0934 0 0
3:35 pm 15:35 Sunny 94 34.4 73 22.6 50 50 S 25 41 29.73 1007 10 16.0934 0 0
3:55 pm 15:55 Partly Cloudy 94 34.4 72 22.1 49 49 SSE 24 39 29.73 1007 10 16.0934 0 0
4:15 pm 16:15 Partly Cloudy 93 34 72 22.1 50 50 SSE 25 41 29.73 1007 10 16.0934 0 0
4:35 pm 16:35 Partly Cloudy 92 33.2 71 21.6 51 51 SSE 24 39 29.73 1007 10 16.0934 0 0
4:55 pm 16:55 Partly Cloudy 93 33.7 72 22 50 50 SSE 23 37 29.73 1007 10 16.0934 0 0
5:15 pm 17:15 Partly Cloudy 93 33.7 71 21.8 50 50 S 26 43 29.72 1006 10 16.0934 0 0
5:35 pm 17:35 Partly Cloudy 93 33.8 70 21.3 48 48 SSE 23 37 29.72 1006 10 16.0934 0 0
5:55 pm 17:55 Partly Cloudy 92 33.2 71 21.6 51 51 SSE 25 41 29.72 1007 10 16.0934 0 0
6:15 pm 18:15 Partly Cloudy 92 33.3 71 21.7 51 51 SSE 21 33 29.71 1006 10 16.0934 0 0
6:35 pm 18:35 Partly Cloudy 91 33 71 21.4 50 50 SSE 23 37 29.71 1006 10 16.0934 0 0
6:55 pm 18:55 Sunny 91 32.6 71 21.5 52 52 SSE 24 39 29.71 1006 10 16.0934 0 0
7:15 pm 19:15 Sunny 88 31.2 70 21.2 55 55 S 20 31 29.71 1006 10 16.0934 0 0
7:35 pm 19:35 Sunny 87 30.5 72 22 60 60 SSE 18 30 29.73 1007 10 16.0934 0 0
7:55 pm 19:55 Sunny 86 30 72 22.1 63 63 SSE 16 26 29.73 1007 10 16.0934 0 0
8:15 pm 20:15 Sunny 85 29.5 72 22 64 64 SSE 17 28 29.72 1007 10 16.0934 0 0
8:35 pm 20:35 Sunny 84 29.1 71 21.8 65 65 SSE 18 30 29.73 1007 10 16.0934 0 0
8:55 pm 20:55 Sunny 84 28.8 71 21.8 66 66 SSE 17 28 29.73 1007 10 16.0934 0 0
9:15 pm 21:15 Clear 83 28.5 72 22 68 68 SSE 15 24 29.74 1007 10 16.0934 0 0
9:35 pm 21:35 Clear 83 28.3 71 21.8 68 68 SSE 14 22 29.75 1008 10 16.0934 0 0
9:55 pm 21:55 Clear 82 28 71 21.8 69 69 SE 15 24 29.78 1008 10 16.0934 0 0
10:15 pm 22:15 Clear 82 27.7 71 21.7 70 70 SE 12 19 29.79 1009 10 16.0934 0 0
10:35 pm 22:35 Clear 82 27.5 71 21.6 70 70 SE 12 19 29.79 1009 10 16.0934 0 0
10:55 pm 22:55 Clear 81 27.2 71 21.6 72 72 SE 12 19 29.8 1009 10 16.0934 0 0
11:15 pm 23:15 Clear 81 27.1 71 21.5 72 72 SSE 16 26 29.81 1010 10 16.0934 0 0
11:35 pm 23:35 Mostly Cloudy 81 27 71 21.5 72 72 SSE 15 24 29.82 1010 10 16.0934 0 0
11:55 pm 23:55 Mostly Cloudy 80 26.9 70 21.3 71 71 SSE 14 22 29.82 1010 10 16.0934 0 0

Powered by AerisWeather